Total_Precipitation_Accumulation
2.00 2.17 2.47 2.68 2.79 2.93 3.17 3.46 3.88 4.22 4.29 4.10 4.00 3.90 3.55 3.27 2.94 2.63 2.55 2.64 2.56 2.64 2.93 2.68 3.02 3.12 3.25 3.40 3.40 3.55 3.43 3.22 3.34 3.23 2.76 2.26 1.96 1.84 1.70 1.75 1.89 1.84 1.90
2.00 2.22 2.48 2.59 2.56 2.76 3.05 3.46 3.88 4.20 4.10 4.16 4.32 4.22 3.97 3.35 2.99 2.81 2.68 2.62 2.59 2.59 2.67 3.03 3.05 3.14 3.29 3.32 3.22 3.26 3.11 2.88 3.18 3.27 3.08 2.46 2.13 1.77 1.45 1.64 1.64 1.77 2.02
1.64 1.80 1.96 2.13 2.39 2.81 3.21 3.46 3.73 3.88 3.92 4.07 4.18 3.90 3.68 3.18 2.99 2.99 2.83 2.69 2.73 2.73 2.81 3.00 3.08 3.06 2.95 3.05 3.18 3.05 2.94 2.80 2.88 3.06 3.10 2.62 2.17 1.79 1.51 1.45 1.49 1.82 2.02
1.49 1.58 1.70 2.01 2.37 2.75 3.25 3.66 3.67 3.69 3.62 3.75 3.83 3.63 3.28 2.99 2.86 2.86 2.64 2.53 2.48 2.50 2.60 2.66 2.80 2.89 2.83 2.87 2.79 2.78 2.82 2.81 2.64 2.78 2.78 2.64 2.43 2.20 1.74 1.40 1.39 1.62 1.76
1.38 1.48 1.57 1.83 2.07 2.46 2.85 3.24 3.52 3.58 3.44 3.40 3.41 3.48 3.25 2.94 2.73 2.63 2.50 2.44 2.43 2.27 2.25 2.35 2.52 2.56 2.47 2.45 2.60 2.82 2.78 2.65 2.51 2.58 2.63 2.74 2.67 2.38 2.07 1.65 1.50 1.45 1.34
1.45 1.52 1.74 1.91 2.03 2.30 2.62 2.85 3.08 3.12 3.06 2.97 2.97 3.03 3.00 2.92 2.65 2.44 2.41 2.41 2.32 2.15 2.07 2.09 2.19 2.23 2.22 2.19 2.24 2.38 2.43 2.41 2.52 2.53 2.48 2.61 2.60 2.49 2.36 1.95 1.69 1.53 1.22
1.55 1.64 1.81 1.92 1.99 2.11 2.26 2.37 2.48 2.53 2.46 2.45 2.40 2.40 2.44 2.48 2.32 2.22 2.28 2.28 2.19 2.06 2.01 1.96 1.91 1.89 1.90 1.98 2.18 2.20 2.17 2.25 2.37 2.36 2.38 2.33 2.25 2.28 2.28 2.11 1.83 1.62 1.28
1.43 1.54 1.62 1.54 1.52 1.59 1.70 1.82 1.89 1.92 1.88 1.94 2.01 2.03 2.16 2.13 2.05 2.14 2.11 2.12 2.08 2.04 1.93 1.77 1.68 1.63 1.64 1.72 1.94 2.09 2.06 2.14 2.20 2.11 2.21 2.10 1.99 2.09 2.08 2.06 2.08 1.91 1.72
1.15 1.14 1.15 1.19 1.28 1.34 1.38 1.44 1.55 1.60 1.53 1.56 1.69 1.77 1.80 1.84 1.86 1.94 1.93 1.83 1.81 1.69 1.64 1.58 1.54 1.48 1.52 1.59 1.65 1.75 1.73 1.81 1.85 1.92 1.90 1.81 1.81 1.88 1.91 2.00 2.10 2.08 1.95
0.97 0.98 0.93 0.96 0.99 1.03 1.17 1.33 1.44 1.57 1.57 1.49 1.50 1.45 1.51 1.55 1.70 1.77 1.70 1.69 1.70 1.63 1.51 1.47 1.43 1.39 1.36 1.39 1.46 1.48 1.51 1.52 1.54 1.69 1.70 1.68 1.68 1.79 1.79 1.85 1.99 2.10 2.14
0.67 0.73 0.73 0.73 0.78 0.88 1.02 1.15 1.40 1.56 1.47 1.31 1.31 1.36 1.34 1.41 1.51 1.56 1.50 1.53 1.58 1.62 1.57 1.49 1.45 1.35 1.26 1.25 1.27 1.25 1.34 1.34 1.33 1.37 1.40 1.46 1.56 1.71 1.74 1.76 1.81 2.02 2.20
0.52 0.63 0.64 0.59 0.65 0.71 0.81 0.96 1.14 1.28 1.25 1.21 1.23 1.33 1.42 1.40 1.34 1.32 1.30 1.31 1.34 1.33 1.31 1.29 1.34 1.36 1.35 1.32 1.28 1.23 1.21 1.24 1.25 1.30 1.37 1.40 1.52 1.65 1.63 1.71 1.78 1.94 2.17
0.61 0.60 0.64 0.56 0.54 0.58 0.71 0.84 0.91 1.00 1.11 1.13 1.18 1.28 1.28 1.24 1.25 1.33 1.34 1.29 1.27 1.26 1.26 1.25 1.24 1.23 1.31 1.41 1.42 1.37 1.36 1.37 1.28 1.33 1.38 1.33 1.36 1.44 1.46 1.58 1.71 1.85 2.01
0.65 0.61 0.57 0.53 0.48 0.48 0.54 0.63 0.73 0.83 0.91 1.00 1.15 1.32 1.36 1.37 1.41 1.42 1.41 1.35 1.27 1.29 1.30 1.25 1.21 1.21 1.19 1.25 1.36 1.40 1.38 1.35 1.30 1.30 1.26 1.19 1.18 1.26 1.35 1.40 1.57 1.75 1.92
0.53 0.52 0.50 0.44 0.43 0.44 0.46 0.53 0.68 0.79 0.90 1.04 1.19 1.32 1.36 1.37 1.37 1.33 1.36 1.35 1.26 1.23 1.32 1.24 1.20 1.21 1.21 1.14 1.16 1.26 1.27 1.26 1.22 1.21 1.12 0.99 0.98 1.03 1.08 1.13 1.39 1.60 1.76
0.49 0.42 0.44 0.42 0.40 0.38 0.41 0.44 0.59 0.75 0.87 1.00 1.12 1.16 1.22 1.29 1.24 1.19 1.18 1.18 1.20 1.21 1.22 1.18 1.19 1.15 0.99 1.02 1.01 1.01 1.06 1.12 1.13 1.14 1.14 1.00 0.86 0.81 0.86 0.88 1.03 1.25 1.43
0.58 0.52 0.50 0.47 0.41 0.39 0.43 0.46 0.51 0.66 0.83 0.95 0.99 1.06 1.18 1.23 1.18 1.09 1.11 1.14 1.16 1.17 1.14 1.10 1.10 1.09 1.03 0.89 0.83 0.83 0.94 1.06 1.10 1.12 1.14 0.98 0.86 0.85 0.78 0.84 0.90 0.94 1.01
0.43 0.51 0.54 0.57 0.58 0.54 0.55 0.58 0.59 0.65 0.79 0.95 1.04 1.09 1.19 1.23 1.22 1.18 1.13 1.12 1.10 1.10 1.13 1.07 1.06 1.12 1.04 0.90 0.80 0.74 0.71 0.85 0.95 0.97 1.01 1.01 1.02 0.93 0.88 0.87 0.89 0.86 0.87
0.41 0.43 0.47 0.56 0.72 0.77 0.73 0.75 0.78 0.74 0.78 0.92 1.05 1.16 1.29 1.30 1.28 1.27 1.22 1.20 1.17 1.13 1.12 1.12 1.14 1.16 1.16 1.05 0.91 0.85 0.86 0.99 1.03 1.04 1.02 1.04 1.07 1.01 0.84 0.81 0.88 0.93 0.96
0.43 0.41 0.44 0.53 0.66 0.72 0.68 0.71 0.78 0.85 0.88 0.97 1.07 1.17 1.27 1.36 1.33 1.36 1.38 1.32 1.29 1.22 1.18 1.25 1.28 1.27 1.30 1.14 0.94 0.91 0.97 1.15 1.22 1.31 1.26 1.11 0.95 0.89 0.74 0.74 0.85 0.85 0.86
0.44 0.42 0.46 0.61 0.67 0.66 0.69 0.78 0.80 0.87 0.93 1.03 1.12 1.24 1.36 1.40 1.39 1.45 1.48 1.44 1.38 1.39 1.31 1.24 1.28 1.35 1.27 1.03 0.80 0.82 0.91 1.12 1.27 1.27 1.24 1.09 0.85 0.73 0.68 0.64 0.68 0.74 0.71
0.47 0.54 0.64 0.74 0.74 0.77 0.88 0.95 0.98 0.95 0.99 1.11 1.18 1.32 1.46 1.32 1.30 1.51 1.58 1.56 1.54 1.54 1.48 1.40 1.33 1.38 1.37 1.10 0.89 0.83 0.88 1.03 1.25 1.37 1.29 1.11 0.92 0.79 0.71 0.59 0.58 0.58 0.57
0.48 0.59 0.72 0.79 0.81 0.87 1.03 1.23 1.21 1.15 1.12 1.21 1.30 1.34 1.39 1.49 1.57 1.60 1.65 1.63 1.58 1.56 1.52 1.48 1.42 1.42 1.48 1.41 1.10 0.96 0.94 1.04 1.10 1.18 1.26 1.13 0.87 0.73 0.69 0.66 0.59 0.52 0.51
0.48 0.54 0.69 0.76 0.89 0.99 1.13 1.36 1.39 1.36 1.36 1.41 1.47 1.48 1.48 1.52 1.65 1.80 1.78 1.69 1.57 1.60 1.62 1.55 1.55 1.56 1.58 1.51 1.31 1.17 1.07 1.07 1.05 1.05 1.04 1.02 0.91 0.77 0.76 0.77 0.67 0.58 0.62
0.51 0.57 0.74 0.88 0.95 0.99 1.08 1.24 1.40 1.54 1.58 1.58 1.57 1.59 1.61 1.67 1.71 1.71 1.67 1.62 1.55 1.48 1.54 1.58 1.58 1.57 1.54 1.41 1.30 1.24 1.20 1.14 1.08 1.03 1.08 1.06 1.08 0.99 0.94 0.95 0.89 0.83 0.86
0.67 0.66 0.71 0.85 0.93 1.00 1.11 1.25 1.46 1.72 1.90 1.85 1.72 1.70 1.71 1.75 1.73 1.71 1.53 1.33 1.26 1.20 1.17 1.22 1.23 1.20 1.15 1.09 1.01 1.01 1.01 0.99 0.98 0.93 1.07 1.17 1.19 1.16 1.15 1.13 1.10 1.08 1.04